EN

Hourly Weather Ampezzo

Today, 28 October, Wednesday

Time Temperature Precipitation Wind Pressure Humidity
00:00 +4°C° 0 mm 2 mps 680 mmHg 89%
01:00 +5°C° 0 mm 1 mps 680 mmHg 90%
02:00 +4°C° 0 mm 2 mps 680 mmHg 89%
03:00 +3°C° 0 mm 2 mps 680 mmHg 88%
04:00 +3°C° 0 mm 2 mps 680 mmHg 87%
05:00 +3°C° 0 mm 2 mps 680 mmHg 86%
06:00 +3°C° 0 mm 2 mps 680 mmHg 85%
07:00 +3°C° 0 mm 2 mps 680 mmHg 83%
08:00 +6°C° 0 mm 1 mps 681 mmHg 77%
09:00 +8°C° 0 mm 1 mps 681 mmHg 70%
10:00 +10°C° 0 mm 0 mps 682 mmHg 64%
11:00 +10°C° 0 mm 0 mps 682 mmHg 61%
12:00 +11°C° 0 mm 0 mps 682 mmHg 59%
13:00 +12°C° 0 mm 0 mps 682 mmHg 56%
14:00 +11°C° 0 mm 0 mps 682 mmHg 63%
15:00 +10°C° 0 mm 0 mps 681 mmHg 69%
16:00 +9°C° 0 mm 0 mps 681 mmHg 76%
17:00 +8°C° 0 mm 0 mps 681 mmHg 77%
18:00 +8°C° 0 mm 1 mps 681 mmHg 79%
19:00 +6°C° 0 mm 1 mps 681 mmHg 81%
20:00 +6°C° 0 mm 1 mps 682 mmHg 79%
21:00 +6°C° 0 mm 1 mps 682 mmHg 77%
22:00 +5°C° 0 mm 1 mps 682 mmHg 75%
23:00 +6°C° 0 mm 1 mps 682 mmHg 72%

Tomorrow, 29 October, Thursday

Time Temperature Precipitation Wind Pressure Humidity
00:00 +5°C° 0 mm 2 mps 682 mmHg 69%
01:00 +5°C° 0 mm 2 mps 682 mmHg 67%
02:00 +5°C° 0 mm 2 mps 682 mmHg 67%
03:00 +4°C° 0 mm 2 mps 682 mmHg 67%
04:00 +4°C° 0 mm 2 mps 681 mmHg 67%
05:00 +5°C° 0 mm 1 mps 682 mmHg 66%
06:00 +6°C° 0 mm 1 mps 682 mmHg 65%
07:00 +6°C° 0 mm 1 mps 682 mmHg 64%
08:00 +8°C° 0 mm 1 mps 683 mmHg 62%
09:00 +9°C° 0 mm 1 mps 683 mmHg 60%
10:00 +10°C° 0 mm 0 mps 684 mmHg 58%
11:00 +11°C° 0 mm 0 mps 684 mmHg 55%
12:00 +12°C° 0 mm 0 mps 684 mmHg 53%
13:00 +14°C° 0 mm 1 mps 684 mmHg 51%
14:00 +13°C° 0 mm 1 mps 684 mmHg 59%
15:00 +12°C° 0 mm 1 mps 684 mmHg 67%
16:00 +11°C° 0 mm 1 mps 684 mmHg 75%
17:00 +10°C° 0 mm 1 mps 684 mmHg 79%
18:00 +8°C° 0 mm 1 mps 685 mmHg 82%
19:00 +7°C° 0 mm 1 mps 685 mmHg 86%
20:00 +6°C° 0 mm 2 mps 685 mmHg 85%
21:00 +5°C° 0 mm 2 mps 686 mmHg 84%
22:00 +5°C° 0 mm 2 mps 686 mmHg 83%
23:00 +5°C° 0 mm 2 mps 686 mmHg 82%

Day after tomorrow, 30 October, Friday

Time Temperature Precipitation Wind Pressure Humidity
00:00 +5°C° 0 mm 2 mps 686 mmHg 81%
01:00 +5°C° 0 mm 2 mps 686 mmHg 80%
02:00 +5°C° 0 mm 2 mps 686 mmHg 80%
03:00 +5°C° 0 mm 2 mps 686 mmHg 80%
04:00 +5°C° 0 mm 2 mps 686 mmHg 79%
05:00 +4°C° 0 mm 2 mps 686 mmHg 80%
06:00 +4°C° 0 mm 2 mps 686 mmHg 80%
07:00 +4°C° 0 mm 2 mps 686 mmHg 80%
08:00 +8°C° 0 mm 1 mps 687 mmHg 73%
09:00 +10°C° 0 mm 1 mps 688 mmHg 67%
10:00 +11°C° 0 mm 0 mps 688 mmHg 60%
11:00 +13°C° 0 mm 1 mps 688 mmHg 59%
12:00 +13°C° 0 mm 1 mps 688 mmHg 58%
13:00 +14°C° 0 mm 1 mps 688 mmHg 58%
14:00 +13°C° 0 mm 1 mps 688 mmHg 65%
15:00 +12°C° 0 mm 1 mps 687 mmHg 72%
16:00 +10°C° 0 mm 0 mps 687 mmHg 79%
17:00 +10°C° 0 mm 1 mps 687 mmHg 81%
18:00 +9°C° 0 mm 1 mps 687 mmHg 84%
19:00 +8°C° 0 mm 1 mps 687 mmHg 87%
20:00 +9°C° 0 mm 1 mps 687 mmHg 87%
21:00 +9°C° 0 mm 1 mps 687 mmHg 87%
22:00 +9°C° 0 mm 1 mps 687 mmHg 86%
23:00 +8°C° 0 mm 1 mps 687 mmHg 86%

31 October, Saturday

Time Temperature Precipitation Wind Pressure Humidity
00:00 +8°C° 0 mm 1 mps 687 mmHg 86%
01:00 +8°C° 0 mm 1 mps 687 mmHg 86%
02:00 +8°C° 0 mm 1 mps 687 mmHg 85%
03:00 +8°C° 0 mm 1 mps 687 mmHg 84%
04:00 +7°C° 0 mm 2 mps 687 mmHg 83%
05:00 +7°C° 0 mm 2 mps 687 mmHg 81%
06:00 +7°C° 0 mm 2 mps 687 mmHg 79%
07:00 +6°C° 0 mm 2 mps 687 mmHg 77%
08:00 +10°C° 0 mm 1 mps 687 mmHg 71%
09:00 +12°C° 0 mm 1 mps 688 mmHg 65%
10:00 +14°C° 0 mm 0 mps 688 mmHg 59%
11:00 +14°C° 0 mm 0 mps 688 mmHg 58%
12:00 +16°C° 0 mm 1 mps 688 mmHg 57%
13:00 +18°C° 0 mm 1 mps 687 mmHg 56%
14:00 +16°C° 0 mm 1 mps 687 mmHg 64%
15:00 +13°C° 0 mm 0 mps 686 mmHg 73%
16:00 +12°C° 0 mm 0 mps 686 mmHg 81%
17:00 +11°C° 0 mm 0 mps 686 mmHg 83%
18:00 +11°C° 0 mm 1 mps 686 mmHg 86%
19:00 +10°C° 0 mm 1 mps 686 mmHg 89%
20:00 +10°C° 0 mm 1 mps 686 mmHg 87%
21:00 +9°C° 0 mm 1 mps 686 mmHg 86%
22:00 +9°C° 0 mm 1 mps 686 mmHg 85%
23:00 +9°C° 0 mm 1 mps 685 mmHg 84%

1 November, Sunday

Time Temperature Precipitation Wind Pressure Humidity
00:00 +9°C° 0 mm 1 mps 685 mmHg 83%
01:00 +9°C° 0 mm 1 mps 685 mmHg 83%
02:00 +8°C° 0 mm 1 mps 685 mmHg 82%
03:00 +8°C° 0 mm 1 mps 685 mmHg 82%
04:00 +8°C° 0 mm 1 mps 685 mmHg 81%
05:00 +8°C° 0 mm 1 mps 685 mmHg 81%
06:00 +8°C° 0 mm 1 mps 685 mmHg 81%
07:00 +7°C° 0 mm 1 mps 685 mmHg 81%
08:00 +10°C° 0 mm 1 mps 685 mmHg 74%
09:00 +12°C° 0 mm 1 mps 685 mmHg 68%
10:00 +13°C° 0 mm 0 mps 686 mmHg 62%
11:00 +14°C° 0 mm 0 mps 686 mmHg 61%
12:00 +15°C° 0 mm 1 mps 686 mmHg 60%
13:00 +16°C° 0 mm 1 mps 686 mmHg 60%
14:00 +15°C° 0 mm 1 mps 686 mmHg 67%
15:00 +14°C° 0 mm 1 mps 685 mmHg 75%
16:00 +13°C° 0 mm 1 mps 685 mmHg 82%
17:00 +12°C° 0 mm 1 mps 685 mmHg 85%
18:00 +11°C° 0 mm 1 mps 685 mmHg 88%
19:00 +9°C° 0 mm 1 mps 685 mmHg 91%
20:00 +9°C° 0 mm 1 mps 685 mmHg 90%
21:00 +9°C° 0 mm 1 mps 685 mmHg 89%
22:00 +9°C° 0 mm 1 mps 685 mmHg 87%
23:00 +9°C° 0 mm 1 mps 685 mmHg 86%

2 November, Monday

Time Temperature Precipitation Wind Pressure Humidity
00:00 +9°C° 0 mm 1 mps 685 mmHg 84%
01:00 +8°C° 0 mm 1 mps 685 mmHg 82%
02:00 +8°C° 0 mm 1 mps 685 mmHg 81%
03:00 +8°C° 0 mm 1 mps 684 mmHg 79%
04:00 +8°C° 0 mm 1 mps 684 mmHg 77%
05:00 +8°C° 0 mm 1 mps 684 mmHg 77%
06:00 +8°C° 0 mm 1 mps 684 mmHg 76%
07:00 +8°C° 0 mm 1 mps 684 mmHg 75%
08:00 +10°C° 0 mm 1 mps 685 mmHg 70%
09:00 +12°C° 0 mm 1 mps 685 mmHg 66%
10:00 +13°C° 0 mm 0 mps 685 mmHg 62%
11:00 +14°C° 0 mm 1 mps 685 mmHg 62%
12:00 +15°C° 0 mm 1 mps 685 mmHg 63%
13:00 +15°C° 0 mm 1 mps 685 mmHg 64%
14:00 +14°C° 0 mm 1 mps 684 mmHg 71%
15:00 +13°C° 0 mm 1 mps 684 mmHg 78%
16:00 +12°C° 0 mm 1 mps 683 mmHg 86%
17:00 +10°C° 0 mm 0 mps 683 mmHg 88%
18:00 +9°C° 0 mm 0 mps 683 mmHg 91%
19:00 +8°C° 0 mm 0 mps 683 mmHg 94%
20:00 +8°C° 0 mm 0 mps 683 mmHg 93%
21:00 +8°C° 0 mm 0 mps 683 mmHg 92%
22:00 +8°C° 0 mm 0 mps 683 mmHg 91%
23:00 +8°C° 0 mm 0 mps 683 mmHg 89%
Show more

We Need Your Consent

Meteoprog and our Service Providers may store and access personal data such as cookies, device identifiers or other similar technologies on your device and process such data to personalise content and ads, as well as provide social media features and to analyse the traffic.

  • Store and/or access information on your device

    Cookies, device identifiers or other information can be stored or accessed on your device for the purposes indicated above.

  • Personalised ads and content, ad and content measurement, audience insights, and products development

    Ads and content can be personalised based on a profile. More data can be added to better personalise ads and content. Ad and content performance can be measured. Insights about the audience who saw the ads and content can be derived. Such data can be used to develop or improve user’s experience, systems and software.

By clicking ‘I Agree’ you will allow the use of indicated cookies, device identifiers, web beacons or other similar technologies. Your settings can be changed in the browser on your device.

For certain purposes, legitimate interests may be relied on, rather than consent. You can read more about this in our Privacy and Cookie Policy.